Погода в Октябрьском

Россия / Еврейская автономная область     48°05′31″N   132°31′03″E
темп.,
°C
ветер,
м/с
пор.,
м/с
влажн.,
%
обл.,
%
осадки,
мм/ч
давл.,
гПа
погр.,
м
8 марта, пн
пн801:00−13зсз34890 0.0 102373
04:00−15зсз35890 0.0 102584
07:00−16зсз34900 0.0 102663
10:00−13з35820 0.0 1027178
13:00−9зюз34790 0.0 1026268
16:00−7юз35820 0.0 1024327
19:00−10ююз23910 0.0 102127
22:00−11ююв23941 0.0 102025
9 марта, вт
вт901:00−9ю339695 0.0 101764
04:00−10ю339489 0.0 101457
07:00−9ю239173 0.0 101035
10:00−5юз498760 0.0 1009435
13:00−1з6107729 0.0 10081021
16:00−1зсз6107764 0.1 10091198
19:00−5сз9187296 0.4 1012968
22:00−6сз7177659 0.4 1016895
10 марта, ср
ср1001:00−7зсз717770 0.0 1018841
04:00−8зсз514790 0.0 1021448
07:00−10зсз410820 0.0 1024217
10:00−7зсз510750 0.0 1026323
13:00−4з467149 0.0 1025339
16:00−2зюз497570 0.0 1023556
19:00−5ююз3687100 0.0 1021126
22:00−5ююз379196 0.1 1021207
11 марта, чт
чт1101:00−8юз238950 0.0 102024
04:00−9зсз338841 0.0 102143
07:00−9зсз36890 0.0 1023102
10:00−6сз510790 0.0 1025376
13:00−1сз59670 0.0 1026484
16:00−1сз49675 0.0 1026641
19:00−5зсз34776 0.0 102671
22:00−7сз347712 0.0 102863
12 марта, пт
пт1201:00−9сз33800 0.0 102939
04:00−10сз23820 0.0 102941
07:00−10сз23820 0.0 103136
10:00−6сз23760 0.0 1032120
13:00−3юз23710 0.0 1032246
16:00−2юз25790 0.0 1030289
19:00−4юз23920 0.0 102825
22:00−6юз23870 0.0 102825